Concordia, KS

4:54 AM CDT on August 25, 2019 (GMT -0500)
Blosser Municipal

Weather History for KCNK - June, 2019

Change the Weather History Date:

Monday, June 10, 2019

  Actual Average Record
Temperature  
Mean Temperature 66 °F 72 °F  
Max Temperature 80 °F 83 °F 104 °F (1933)
Min Temperature 51 °F 60 °F 45 °F (1979)
Degree Days  
Heating Degree Days 0 1  
Month to date heating degree days 0 10  
Since 1 June heating degree days 0 10  
Since 1 July heating degree days 5821 5405  
Cooling Degree Days 1 7  
Month to date cooling degree days 96 60  
Year to date cooling degree days 196 149  
Since 1 June cooling degree days 96 60  
Growing Degree Days 16 (Base 50)    
Moisture  
Dew Point 44 °F    
Average Humidity 53    
Maximum Humidity 83    
Minimum Humidity 23    
Precipitation  
Precipitation 0.00 in 0.13 in 2.25 in (1983)
Month to date precipitation 0.44 1.34  
Year to date precipitation 15.03 11.33  
Snow  
Snow 0.00 in 0.00 in T in (1900)
Month to date snowfall 0.0 0.0  
Year to date snowfall 32.3 13.7  
Since 1 July snowfall 48.2 20.2  
Snow Depth 0.00 in    
Sea Level Pressure  
Sea Level Pressure 30.33 in    
Wind  
Wind Speed 8 mph (West)    
Max Wind Speed 14 mph    
Max Gust Speed 19 mph    
Visibility 10 miles    
Events      
T = Trace of Precipitation, MM = Missing Value Source: NWS Daily Summary

Daily Weather History Graph

Daily Weather History Graph

Search for Another Location

Airport or City:

Astronomy

Jun. 10, 2019 Rise Set
Actual Time 6:02 AM CDT 8:57 PM CDT
Civil Twilight 5:30 AM CDT 9:29 PM CDT
Nautical Twilight 4:49 AM CDT 10:10 PM CDT
Astronomical Twilight 4:02 AM CDT 10:57 PM CDT
Moon 1:51 PM CDT (6/10) 2:13 AM CDT (6/10)
Length of Visible Light 15h 59m
Length of Day
14h 54m
First Quarter, 55% of the Moon is Illuminated
Jun 10
First Quarter
Jun 17
Full
Jun 25
Last Quarter
Jul 2
New
Jul 9
First Quarter

Hourly Weather History & Observations

Time (CDT) Temp. Dew Point Humidity Pressure Visibility Wind Dir Wind Speed Gust Speed Precip Events Conditions
12:55 AM 55.9 °F 48.0 °F 75% 30.35 in 10.0 mi NW 5.8 mph - N/A   Clear
1:55 AM 55.0 °F 48.0 °F 77% 30.34 in 10.0 mi WNW 8.1 mph - N/A   Clear
2:55 AM 53.1 °F 48.0 °F 83% 30.35 in 10.0 mi WNW 6.9 mph - N/A   Clear
3:55 AM 52.0 °F 46.9 °F 83% 30.36 in 10.0 mi West 8.1 mph - N/A   Clear
4:55 AM 51.1 °F 46.9 °F 86% 30.38 in 10.0 mi West 9.2 mph - N/A   Clear
5:55 AM 52.0 °F 46.0 °F 80% 30.39 in 10.0 mi West 8.1 mph - N/A   Clear
6:55 AM 52.0 °F 46.0 °F 80% 30.42 in 10.0 mi West 8.1 mph - N/A   Clear
7:55 AM 55.9 °F 48.9 °F 77% 30.42 in 10.0 mi West 9.2 mph - N/A   Clear
8:55 AM 62.1 °F 51.1 °F 67% 30.43 in 10.0 mi WNW 9.2 mph - N/A   Clear
9:55 AM 66.9 °F 48.9 °F 52% 30.42 in 10.0 mi WNW 12.7 mph - N/A   Clear
10:55 AM 72.0 °F 48.9 °F 44% 30.41 in 10.0 mi WNW 9.2 mph - N/A   Clear
11:55 AM 73.9 °F 43.0 °F 33% 30.40 in 10.0 mi NNW 8.1 mph - N/A   Clear
12:55 PM 75.0 °F 39.0 °F 27% 30.38 in 10.0 mi NW 10.4 mph 18.4 mph N/A   Clear
1:55 PM 77.0 °F 43.0 °F 30% 30.35 in 10.0 mi West 10.4 mph - N/A   Clear
2:55 PM 77.0 °F 39.9 °F 26% 30.32 in 10.0 mi NNW 8.1 mph - N/A   Clear
3:55 PM 78.1 °F 39.9 °F 25% 30.29 in 10.0 mi North - - N/A   Clear
4:55 PM 77.0 °F 39.0 °F 25% 30.26 in 10.0 mi Variable 3.5 mph - N/A   Clear
5:55 PM 79.0 °F 37.9 °F 23% 30.25 in 10.0 mi Calm Calm - N/A   Clear
6:55 PM 77.0 °F 37.9 °F 24% 30.23 in 10.0 mi SSW 4.6 mph - N/A   Clear
7:55 PM 75.0 °F 44.1 °F 33% 30.23 in 10.0 mi South 3.5 mph - N/A   Clear
8:55 PM 68.0 °F 46.0 °F 45% 30.22 in 10.0 mi SSE 5.8 mph - N/A   Clear
10:55 PM 64.9 °F 45.0 °F 48% 30.22 in 10.0 mi South 10.4 mph - N/A   Clear
11:55 PM 64.0 °F 45.0 °F 50% 30.21 in 10.0 mi South 10.4 mph - N/A   Clear